Wind_Speed
19 18 18 19 19 18 18 20 20 17 14 14 13 14 12 10 8 8 9 8 8 8 7 7 8 9 10 11 12 12 12 11 11 11 10 10 11 11 11 11 11 11 10 9 9 8 7 7 6
22 21 21 21 20 19 20 22 20 18 16 14 14 14 13 8 8 10 11 11 10 9 9 9 9 10 11 12 13 13 13 12 12 11 11 11 11 11 11 11 10 10 9 8 8 7 6 5 5
26 24 24 23 21 19 22 24 23 19 17 16 16 14 11 7 7 10 12 13 11 9 9 10 10 11 12 13 14 14 14 13 13 12 11 11 11 11 10 10 10 9 8 7 6 6 5 5 5
28 28 27 25 21 20 24 26 25 20 17 19 17 14 10 7 8 9 12 13 11 10 10 10 11 11 12 14 14 15 14 14 13 12 12 11 11 10 10 9 8 7 7 6 5 5 4 4 5
30 30 29 26 21 22 26 27 27 24 19 21 19 15 13 10 9 8 9 10 9 9 9 9 10 11 13 14 15 15 15 14 13 13 12 11 10 10 9 8 7 6 5 4 4 4 4 4 5
30 32 31 27 24 25 27 28 28 26 23 22 22 19 17 14 9 7 8 9 9 8 8 9 10 11 12 13 14 14 15 14 14 13 12 11 10 9 8 8 6 5 4 4 4 4 4 4 5
31 33 32 29 28 28 29 31 30 28 26 24 23 21 19 15 9 7 7 9 8 8 9 9 10 11 12 12 13 14 14 14 14 13 12 11 10 9 8 7 6 5 4 4 4 4 4 4 5
32 34 33 32 30 30 31 34 32 31 28 26 25 23 18 15 10 6 7 9 10 9 10 10 10 10 11 12 13 13 14 14 14 13 12 11 10 9 8 7 6 5 5 4 4 4 5 5 5
34 35 33 32 33 32 35 37 35 33 30 27 24 21 20 15 12 8 7 9 10 9 10 10 10 10 11 12 13 14 14 14 13 13 12 11 10 9 8 7 6 6 5 5 5 5 6 6 7
35 35 32 33 35 36 38 39 38 36 33 29 26 22 21 19 14 10 8 9 10 10 10 9 9 10 11 12 13 14 13 13 13 13 12 11 10 9 8 7 6 6 6 6 6 7 7 7 8
33 33 32 34 36 38 41 41 40 39 36 31 29 26 23 22 17 11 10 11 10 10 10 10 9 10 11 12 13 13 14 13 13 13 12 11 10 9 8 8 7 7 7 7 7 8 9 9 10
32 32 33 34 37 40 42 43 42 40 36 33 31 27 24 21 16 13 12 12 11 11 10 9 9 10 11 12 12 13 13 13 13 13 12 11 11 10 9 8 8 8 9 9 9 10 11 12 13
31 31 33 34 37 40 43 44 44 41 38 37 34 31 26 19 15 14 13 14 14 12 11 9 10 10 10 11 12 13 13 13 13 13 12 12 11 11 10 10 10 10 10 11 11 13 14 15 16
28 31 33 35 37 39 43 45 45 42 40 39 36 31 25 21 16 14 14 15 16 14 13 12 11 11 11 12 12 13 13 13 13 13 13 13 12 12 12 11 11 12 12 13 14 15 17 18 20
27 29 30 32 33 36 40 45 45 42 41 40 37 33 27 24 19 18 17 16 17 17 15 14 13 13 13 13 13 14 14 14 14 14 14 14 14 14 13 13 13 14 14 16 17 18 20 22 23
24 25 24 24 28 31 37 42 42 42 42 40 37 34 31 27 23 22 21 19 20 20 18 17 16 16 15 15 16 15 15 15 15 15 15 15 15 15 15 15 15 16 17 18 20 21 22 23 24
21 21 20 19 21 24 31 34 36 40 42 40 37 36 34 30 28 26 24 23 23 23 21 20 19 18 18 17 17 17 16 16 17 17 17 16 16 17 17 17 17 18 19 21 21 22 23 24 25
16 17 17 18 18 21 25 26 29 35 39 40 39 37 37 34 31 29 28 26 26 26 24 24 23 21 20 19 19 18 18 18 18 18 18 17 17 18 18 19 20 21 22 22 23 24 25 25 26
15 16 15 16 17 19 21 22 25 30 34 37 38 38 38 36 33 31 30 29 29 27 26 26 26 24 22 21 20 20 19 19 19 19 19 19 20 20 20 21 22 22 23 24 24 25 26 26 26
14 15 14 15 16 16 18 20 24 27 31 34 35 37 38 36 34 33 32 31 30 28 27 26 26 25 24 23 23 23 22 22 21 21 21 22 23 23 23 23 24 24 24 24 26 27 28 28 27
14 14 13 14 16 16 17 19 22 25 27 30 33 34 35 35 34 33 32 32 31 29 28 29 28 26 26 24 24 24 24 24 23 22 22 23 23 23 22 22 24 25 25 26 26 26 26 26 27
16 16 14 14 16 17 17 18 21 23 25 29 31 32 33 33 33 33 31 31 30 30 29 29 28 27 28 26 25 26 24 25 25 24 22 22 22 22 22 22 23 24 25 26 27 26 25 25 25
16 17 17 16 15 18 18 19 20 22 24 26 28 30 31 31 31 30 31 30 31 31 30 28 27 28 27 28 27 27 25 25 26 24 22 22 21 21 20 19 19 21 23 24 25 25 26 27 26
15 17 17 17 18 18 18 20 21 22 23 24 26 28 30 31 31 30 30 30 28 29 29 29 29 29 28 28 28 28 27 27 25 23 23 22 21 20 20 20 20 23 25 26 27 27 28 28 28
16 16 17 18 19 18 18 21 22 22 22 22 24 24 27 30 31 31 31 29 29 29 28 28 29 30 29 29 29 29 28 27 26 25 24 23 23 24 24 24 25 26 28 29 30 31 31 31 31
18 18 17 15 16 18 19 21 22 21 20 20 21 23 25 28 30 30 30 30 30 30 30 30 30 29 29 30 28 28 27 27 28 28 27 26 26 28 28 29 30 30 31 32 32 32 32 33 33
18 19 17 16 16 18 19 21 22 21 20 20 21 22 23 25 28 30 30 30 29 29 30 30 30 28 28 28 29 29 29 28 28 28 28 29 29 30 31 32 32 33 32 32 31 32 33 35 37
17 18 18 18 17 17 19 19 19 20 21 20 21 22 24 24 26 27 28 27 27 28 28 28 27 27 27 27 28 27 27 28 28 28 29 30 31 33 33 33 34 34 34 34 35 36 37 38 40
17 19 20 19 17 16 16 18 20 19 20 21 21 23 24 25 25 26 27 26 27 27 27 27 27 27 28 28 28 28 29 29 29 30 31 32 33 33 34 35 35 36 36 37 38 38 39 41 42
16 18 19 19 16 14 15 16 16 17 18 20 22 23 24 24 25 26 26 26 26 27 27 28 28 29 29 30 30 30 31 31 32 33 34 35 35 36 37 37 38 38 38 39 40 40 41 43 44
Wind_Direction
244 243 241 238 232 224 222 228 232 238 250 246 239 231 235 245 268 282 292 290 285 274 271 262 258 257 256 255 254 254 254 257 262 268 275 279 284 287 289 291 293 294 297 298 299 299 299 299 297
240 241 240 238 233 224 222 228 234 242 250 247 241 234 235 246 275 278 277 275 280 275 270 267 263 261 258 257 256 255 255 256 260 265 270 275 280 283 285 287 289 292 295 297 298 299 300 303 304
238 239 239 238 234 226 224 230 237 243 250 248 242 236 232 240 263 269 269 269 271 270 269 269 267 264 261 259 257 255 254 254 257 261 265 271 276 279 280 282 285 287 290 292 294 297 302 307 310
239 238 239 238 234 227 226 230 237 242 248 247 246 241 233 245 255 267 268 264 262 263 264 265 265 263 261 259 257 255 254 254 256 258 261 265 271 274 276 278 279 279 281 283 287 293 301 307 311
241 239 239 237 232 227 228 232 238 242 247 248 245 244 240 244 255 264 266 263 260 263 264 267 264 262 260 257 255 254 254 253 253 255 256 260 264 268 270 271 271 270 270 273 281 288 298 307 311
244 241 239 236 231 227 230 233 238 242 244 247 248 251 253 254 250 251 259 265 265 265 265 265 264 261 258 255 252 250 250 249 249 250 252 253 256 261 263 263 262 260 259 264 272 280 292 305 309
248 244 239 234 229 226 230 233 237 240 240 245 246 249 250 245 234 238 250 267 271 269 267 267 263 259 256 253 250 247 245 245 245 246 247 248 251 255 256 256 254 252 251 254 265 277 289 301 308
249 245 240 233 228 225 229 233 235 238 241 244 246 247 248 234 230 233 248 264 266 263 262 264 260 258 255 250 247 245 243 242 241 241 241 243 247 250 252 251 249 245 246 253 266 281 291 301 313
252 248 243 235 229 223 226 231 233 238 242 241 245 249 249 243 238 236 243 255 261 257 258 259 256 254 253 250 246 244 241 239 238 237 237 239 243 247 248 248 247 246 249 257 270 285 294 299 310
256 251 243 235 229 223 224 230 233 237 239 241 245 251 248 245 240 234 229 238 249 252 252 255 255 250 249 247 244 240 238 236 235 234 233 236 241 244 245 246 246 249 254 262 275 286 293 297 305
257 252 243 233 228 224 223 227 231 237 240 243 248 250 247 242 238 222 219 230 242 246 248 248 250 251 249 245 241 237 235 234 232 231 231 234 237 240 243 245 248 252 258 268 280 289 293 296 302
255 250 243 235 229 225 223 225 229 234 238 242 247 252 248 238 233 224 217 222 235 239 241 241 245 251 250 245 240 236 234 232 230 229 229 230 233 237 242 248 254 260 267 275 284 290 292 295 299
254 249 243 236 229 226 224 224 227 231 235 240 244 250 253 245 238 231 223 223 228 237 240 237 242 244 244 241 238 236 233 231 229 227 227 228 231 237 244 250 257 266 273 278 283 288 290 294 298
254 249 243 237 232 227 225 224 226 228 232 238 242 247 250 253 248 242 233 226 227 233 237 237 240 242 244 239 235 234 232 232 231 228 228 230 234 240 246 252 261 268 275 280 285 291 292 294 297
254 251 247 243 238 231 229 226 225 227 231 236 241 245 250 249 248 248 243 235 234 234 236 235 240 244 246 241 236 235 233 234 233 233 234 236 240 244 247 253 262 268 275 281 286 289 290 290 293
254 253 250 246 243 237 234 229 225 226 229 233 237 242 246 247 248 250 247 242 237 237 235 234 239 241 241 240 237 236 236 237 239 239 238 241 244 247 249 255 263 270 276 283 286 286 287 289 290
251 250 247 241 240 240 238 234 226 226 228 229 233 237 241 245 247 249 249 247 243 243 241 242 238 237 236 237 236 236 236 237 238 239 240 244 248 251 255 260 265 271 277 283 287 288 287 288 289
244 241 236 228 222 228 233 231 223 223 226 228 229 233 238 242 246 248 248 248 244 243 243 245 243 239 236 236 235 235 236 237 239 241 243 246 253 256 259 266 270 272 278 283 288 291 289 288 289
229 226 221 210 209 223 223 219 215 214 219 222 224 228 233 238 242 247 247 247 243 241 242 244 245 240 239 239 237 238 237 238 242 245 246 251 257 261 265 270 274 276 278 282 286 291 290 289 289
218 214 207 198 202 219 215 209 206 208 213 217 220 224 230 235 241 244 248 247 244 242 239 236 236 241 240 242 241 239 240 242 243 245 251 256 260 264 270 274 275 278 279 282 284 286 288 285 284
209 207 204 201 199 208 212 211 210 208 210 213 217 222 227 232 237 242 246 248 248 243 238 237 237 239 238 243 243 241 244 245 246 247 252 257 260 265 271 274 277 278 281 283 283 285 286 285 283
214 208 210 207 203 198 206 216 215 213 213 213 217 222 226 231 236 241 243 246 245 243 242 242 241 242 242 244 246 244 248 249 249 251 257 263 266 269 272 276 279 281 282 284 282 282 285 287 285
217 214 216 214 210 204 206 218 218 218 217 217 220 224 226 230 234 237 240 246 245 245 244 246 247 248 248 246 247 248 250 252 252 253 260 265 270 274 282 289 288 288 291 291 288 286 285 286 286
217 217 219 218 214 211 210 220 222 221 222 224 225 226 229 231 232 236 240 246 248 251 254 253 255 254 252 250 251 253 257 257 257 261 266 270 275 280 287 293 295 295 293 291 289 288 285 282 284
213 216 217 218 216 215 218 223 226 225 226 225 228 228 230 232 233 237 243 246 249 253 257 258 258 260 256 253 256 258 262 264 266 271 273 279 284 287 289 292 294 295 294 292 291 290 286 285 285
207 212 214 215 218 220 224 227 231 233 234 232 232 230 231 234 236 240 244 249 251 251 254 257 260 261 260 259 263 264 266 273 276 277 279 284 287 287 290 292 291 292 292 292 290 288 287 286 286
202 207 209 215 217 222 224 228 232 236 239 240 236 230 232 236 239 242 244 247 249 250 252 255 259 260 261 263 265 269 272 276 279 281 283 286 286 287 289 289 290 291 291 290 290 290 288 287 287
199 201 211 220 226 231 230 235 239 240 243 247 241 235 234 237 241 242 243 246 248 251 252 254 258 261 263 266 269 272 277 282 284 284 285 286 287 287 288 289 290 291 292 291 292 292 290 288 290
196 204 213 222 229 242 249 248 245 252 253 249 239 236 238 239 240 242 243 245 250 253 254 256 259 262 265 268 272 275 277 280 281 283 284 285 285 287 288 290 291 290 291 292 293 293 293 293 293
201 210 220 230 238 253 261 261 259 265 261 250 241 238 238 239 240 242 243 247 251 254 256 257 260 263 266 269 272 273 275 276 279 281 282 284 286 288 289 290 292 292 293 294 294 294 294 294 294
Height
5888 5888 5889 5890 5892 5893 5894 5893 5893 5894 5894 5893 5893 5893 5894 5895 5898 5901 5901 5902 5903 5904 5904 5905 5906 5906 5907 5908 5908 5909 5909 5910 5910 5911 5911 5911 5910 5910 5910 5910 5909 5909 5908 5907 5906 5906 5905 5905 5904
5883 5885 5886 5887 5888 5890 5891 5891 5891 5891 5892 5891 5890 5890 5890 5892 5894 5897 5898 5899 5901 5902 5902 5903 5904 5905 5905 5906 5907 5907 5908 5908 5909 5909 5909 5909 5909 5909 5909 5908 5908 5907 5907 5906 5905 5904 5904 5903 5903
5879 5880 5882 5883 5885 5888 5889 5888 5888 5889 5889 5887 5887 5886 5887 5889 5892 5894 5895 5897 5898 5899 5900 5901 5902 5903 5903 5904 5905 5906 5906 5907 5907 5907 5907 5907 5907 5907 5907 5907 5907 5906 5906 5905 5904 5903 5903 5902 5902
5874 5876 5878 5880 5882 5885 5884 5885 5885 5886 5886 5884 5883 5883 5884 5887 5890 5892 5893 5894 5895 5897 5898 5898 5899 5900 5901 5902 5903 5903 5904 5905 5905 5905 5906 5906 5906 5906 5906 5906 5906 5905 5905 5904 5903 5903 5902 5901 5901
5869 5871 5873 5875 5879 5880 5880 5881 5882 5884 5883 5881 5880 5880 5881 5884 5887 5889 5890 5891 5893 5894 5895 5896 5896 5897 5898 5899 5900 5901 5902 5903 5903 5904 5904 5904 5904 5904 5905 5905 5905 5904 5904 5903 5903 5902 5901 5901 5900
5864 5865 5868 5871 5875 5876 5877 5878 5878 5879 5880 5879 5878 5878 5879 5880 5884 5886 5887 5888 5891 5892 5892 5893 5894 5895 5895 5896 5897 5898 5900 5900 5901 5901 5902 5902 5902 5903 5903 5903 5903 5903 5903 5902 5902 5901 5901 5900 5899
5858 5859 5862 5866 5869 5871 5872 5872 5873 5874 5875 5874 5874 5874 5874 5877 5880 5883 5884 5885 5888 5889 5890 5891 5892 5892 5893 5893 5894 5896 5897 5898 5898 5899 5900 5900 5900 5901 5901 5902 5902 5902 5902 5901 5901 5900 5899 5899 5898
5850 5852 5855 5860 5864 5867 5867 5866 5868 5869 5870 5870 5870 5870 5870 5872 5876 5878 5881 5883 5885 5886 5888 5888 5889 5890 5890 5891 5892 5893 5894 5895 5896 5897 5897 5898 5898 5899 5900 5900 5900 5901 5901 5900 5900 5899 5898 5897 5897
5842 5845 5849 5854 5858 5862 5861 5860 5862 5863 5864 5866 5866 5867 5868 5869 5872 5875 5878 5880 5882 5884 5885 5886 5886 5887 5888 5889 5890 5891 5892 5892 5893 5894 5895 5896 5896 5897 5898 5898 5899 5899 5899 5898 5898 5897 5897 5896 5895
5834 5838 5844 5848 5850 5854 5854 5854 5856 5857 5858 5860 5862 5864 5865 5866 5869 5872 5875 5878 5880 5882 5883 5883 5884 5884 5885 5886 5887 5888 5889 5890 5891 5892 5893 5894 5894 5895 5896 5897 5897 5897 5897 5897 5896 5896 5895 5894 5893
5827 5830 5835 5838 5841 5845 5847 5848 5849 5851 5853 5855 5857 5859 5862 5864 5866 5870 5872 5876 5878 5879 5880 5881 5882 5882 5883 5884 5884 5885 5886 5887 5888 5890 5891 5891 5892 5893 5894 5895 5895 5895 5895 5895 5894 5894 5893 5892 5891
5819 5822 5825 5829 5832 5836 5839 5842 5843 5846 5848 5850 5852 5854 5858 5861 5864 5867 5869 5872 5875 5877 5878 5879 5879 5880 5881 5881 5882 5883 5884 5885 5886 5887 5888 5889 5890 5891 5891 5892 5892 5893 5893 5893 5892 5891 5890 5890 5889
5811 5814 5817 5820 5823 5827 5831 5834 5837 5840 5843 5845 5849 5852 5856 5858 5861 5863 5865 5869 5872 5874 5875 5876 5877 5878 5879 5879 5880 5880 5881 5882 5883 5885 5886 5887 5887 5888 5888 5889 5890 5890 5890 5890 5889 5889 5887 5886 5885
5805 5807 5809 5812 5815 5819 5823 5827 5831 5835 5838 5840 5844 5849 5853 5856 5858 5860 5863 5866 5869 5870 5872 5874 5874 5875 5876 5877 5877 5877 5878 5879 5881 5882 5883 5884 5885 5885 5886 5886 5886 5886 5886 5886 5886 5885 5884 5883 5882
5799 5800 5803 5807 5810 5813 5816 5819 5824 5830 5833 5837 5840 5845 5849 5852 5855 5857 5860 5863 5865 5867 5869 5871 5872 5872 5873 5874 5874 5875 5875 5876 5877 5879 5880 5881 5881 5882 5882 5883 5883 5883 5883 5883 5882 5881 5880 5878 5877
5794 5795 5798 5802 5804 5807 5810 5813 5819 5823 5827 5831 5836 5840 5843 5847 5850 5852 5855 5858 5860 5863 5865 5867 5868 5869 5870 5871 5871 5872 5872 5873 5874 5875 5876 5876 5877 5877 5878 5879 5879 5879 5878 5878 5877 5876 5875 5873 5872
5789 5791 5793 5797 5799 5801 5802 5806 5813 5817 5820 5825 5830 5834 5838 5841 5845 5848 5850 5853 5856 5858 5860 5863 5864 5865 5866 5867 5868 5868 5869 5869 5870 5871 5872 5872 5872 5873 5873 5874 5874 5874 5873 5873 5872 5871 5869 5867 5866
5785 5786 5788 5791 5793 5795 5796 5799 5805 5809 5814 5820 5825 5829 5832 5836 5840 5842 5844 5847 5850 5852 5855 5858 5859 5860 5861 5862 5863 5864 5865 5866 5866 5867 5868 5868 5868 5868 5868 5868 5868 5868 5868 5867 5866 5865 5863 5861 5859
5780 5782 5785 5788 5789 5789 5790 5794 5799 5802 5806 5812 5818 5823 5826 5831 5835 5837 5839 5841 5843 5846 5849 5851 5853 5854 5856 5857 5858 5859 5860 5861 5862 5862 5862 5862 5862 5862 5863 5863 5863 5862 5862 5861 5860 5858 5857 5855 5853
5777 5779 5781 5783 5785 5786 5788 5790 5793 5796 5801 5806 5812 5817 5821 5825 5829 5832 5834 5836 5837 5840 5842 5843 5846 5847 5849 5850 5851 5853 5854 5855 5856 5856 5856 5857 5857 5857 5857 5857 5857 5856 5856 5855 5853 5852 5850 5848 5847
5774 5776 5778 5779 5781 5783 5785 5787 5788 5792 5796 5801 5806 5811 5816 5820 5823 5826 5828 5830 5831 5833 5835 5837 5838 5840 5842 5844 5845 5847 5848 5849 5850 5850 5851 5851 5850 5850 5850 5850 5850 5850 5849 5848 5847 5845 5843 5841 5840
5771 5773 5775 5776 5777 5779 5783 5784 5786 5789 5793 5797 5801 5806 5811 5814 5817 5820 5822 5824 5826 5827 5830 5829 5830 5833 5836 5838 5839 5840 5841 5841 5842 5843 5844 5844 5843 5843 5843 5843 5843 5842 5842 5841 5839 5837 5836 5835 5833
5768 5770 5772 5773 5774 5776 5779 5781 5784 5786 5789 5793 5797 5801 5805 5808 5811 5814 5816 5817 5819 5821 5823 5825 5824 5827 5829 5831 5833 5833 5834 5834 5835 5836 5837 5838 5837 5836 5836 5836 5836 5835 5835 5833 5832 5830 5829 5828 5826
5765 5767 5768 5770 5772 5775 5777 5779 5781 5784 5786 5790 5793 5796 5799 5802 5806 5809 5811 5812 5812 5815 5818 5819 5820 5821 5823 5824 5825 5826 5827 5827 5827 5828 5829 5830 5830 5830 5830 5830 5829 5829 5828 5826 5825 5823 5822 5820 5818
5762 5764 5766 5768 5770 5773 5775 5776 5778 5780 5783 5785 5788 5791 5794 5797 5800 5803 5805 5807 5809 5811 5813 5814 5814 5815 5816 5818 5819 5820 5820 5820 5821 5821 5822 5823 5823 5824 5824 5823 5823 5822 5820 5819 5817 5816 5814 5812 5810
5759 5762 5765 5766 5768 5770 5771 5772 5775 5776 5778 5781 5783 5786 5789 5792 5794 5797 5799 5802 5803 5805 5807 5809 5809 5810 5811 5812 5813 5813 5813 5814 5815 5815 5815 5816 5817 5817 5817 5816 5815 5814 5812 5810 5808 5807 5805 5803 5801
5757 5759 5762 5764 5765 5767 5768 5770 5772 5772 5774 5776 5779 5781 5784 5787 5789 5792 5794 5796 5798 5800 5802 5803 5804 5805 5806 5806 5807 5807 5808 5808 5809 5809 5809 5810 5810 5809 5809 5808 5807 5805 5803 5801 5799 5797 5796 5793 5791
5755 5758 5760 5762 5763 5764 5765 5767 5768 5769 5770 5772 5774 5777 5780 5782 5784 5786 5788 5790 5792 5794 5795 5797 5798 5799 5800 5800 5802 5802 5802 5802 5802 5803 5803 5802 5802 5801 5800 5799 5797 5796 5794 5792 5790 5787 5785 5783 5780
5754 5756 5757 5759 5761 5762 5763 5766 5765 5765 5765 5766 5768 5771 5774 5777 5779 5781 5783 5785 5787 5788 5790 5791 5792 5793 5794 5795 5796 5796 5796 5796 5796 5796 5795 5795 5794 5793 5791 5789 5788 5786 5784 5781 5779 5777 5774 5771 5768
5752 5754 5755 5757 5759 5760 5760 5764 5761 5761 5760 5761 5762 5766 5769 5771 5774 5776 5778 5779 5781 5782 5784 5785 5786 5787 5788 5789 5789 5789 5790 5789 5789 5788 5788 5787 5786 5784 5782 5780 5778 5776 5773 5771 5769 5766 5763 5760 5756